GFSFLT2_850_temp_129.txt.gz
Temp
-2 -2 -2 -2 -3 -3 -3 -2 -1 0 1 1 1 2 2 1 2 2 2 3 4 4 5 4 4 4 6
-3 -3 -3 -3 -3 -3 -3 -3 -4 -4 -4 -1 -1 -0 0 0 1 1 1 1 2 3 4 4 4 4 4
-4 -4 -4 -4 -4 -4 -4 -4 -3 -4 -2 -2 -5 -3 -1 -0 -0 -0 0 0 1 2 2 3 3 3 4
-5 -5 -5 -5 -5 -5 -5 -5 -5 -3 -2 -5 -4 -3 -3 -2 -1 -2 -2 -1 -1 -1 1 2 2 2 3
-5 -5 -5 -5 -5 -5 -6 -6 -5 -5 -5 -5 -4 -3 -3 -3 -3 -4 -3 -2 -2 -2 -1 -0 0 1 1
-6 -6 -6 -6 -6 -6 -6 -7 -7 -6 -6 -6 -5 -4 -4 -5 -5 -5 -4 -3 -4 -3 -2 -2 -1 -0 -0
-6 -7 -7 -7 -7 -7 -7 -7 -7 -7 -7 -7 -7 -6 -6 -5 -5 -5 -5 -6 -5 -4 -3 -3 -2 -1 -0
-7 -7 -7 -7 -7 -7 -7 -7 -7 -7 -7 -7 -7 -7 -7 -6 -5 -4 -6 -6 -6 -5 -4 -3 -3 -2 -1
-7 -7 -7 -7 -7 -7 -8 -8 -8 -8 -8 -8 -8 -8 -7 -7 -5 -6 -7 -7 -7 -7 -6 -5 -4 -3 -2
-7 -7 -7 -7 -8 -8 -8 -9 -9 -9 -8 -9 -9 -8 -9 -9 -7 -7 -7 -8 -8 -7 -7 -5 -5 -5 -4
-7 -8 -8 -8 -8 -8 -8 -9 -9 -9 -9 -9 -10 -10 -10 -10 -9 -9 -8 -8 -8 -7 -7 -6 -6 -7 -6
-8 -8 -8 -8 -9 -9 -9 -9 -9 -9 -8 -10 -11 -11 -11 -10 -10 -9 -9 -9 -8 -8 -7 -7 -7 -7 -7
-8 -9 -9 -9 -9 -9 -9 -9 -10 -10 -10 -10 -11 -11 -11 -10 -10 -10 -10 -9 -8 -8 -8 -8 -8 -8 -7
-9 -9 -10 -10 -10 -10 -10 -10 -10 -10 -10 -10 -10 -11 -10 -10 -10 -10 -10 -10 -9 -9 -9 -8 -8 -8 -7
-9 -10 -10 -10 -10 -10 -11 -11 -11 -11 -11 -10 -11 -11 -11 -11 -10 -10 -10 -9 -9 -9 -9 -9 -8 -7 -7
-10 -10 -10 -10 -11 -11 -11 -11 -11 -11 -11 -11 -11 -11 -11 -11 -11 -10 -10 -9 -9 -9 -9 -9 -9 -7 -7
-9 -10 -10 -10 -11 -11 -11 -11 -11 -11 -11 -11 -11 -11 -11 -11 -11 -10 -10 -9 -9 -9 -9 -9 -10 -8 -8

GFSFLT2_850_temp_135.txt.gz
Temp
-1 -1 -2 -2 -2 -2 -2 -3 -2 -2 -2 -2 -2 -2 -2 -4 -4 -2 -0 0 1 0 2 1 1 0 3
-1 -1 -2 -3 -3 -3 -3 -3 -4 -4 -4 -3 -2 -1 -2 -3 -1 -1 -1 -1 -0 -0 0 1 0 -2 1
-2 -2 -2 -3 -3 -3 -4 -4 -4 -4 -4 -4 -3 -4 -3 -2 -2 -2 -1 -1 -1 -3 -5 -3 -1 -1 -0
-3 -3 -3 -3 -4 -5 -4 -4 -4 -4 -3 -3 -3 -4 -4 -4 -3 -3 -2 -2 -2 -3 -4 -2 -3 -5 -3
-4 -4 -4 -5 -6 -6 -6 -6 -5 -4 -4 -4 -4 -3 -3 -4 -4 -3 -3 -3 -5 -6 -4 -3 -4 -5 -5
-5 -6 -5 -6 -6 -6 -7 -7 -6 -5 -6 -5 -5 -5 -5 -4 -4 -4 -4 -4 -5 -4 -4 -6 -6 -6 -6
-7 -6 -7 -6 -7 -7 -7 -7 -7 -6 -7 -7 -6 -6 -6 -5 -5 -5 -5 -5 -5 -5 -6 -6 -6 -7 -6
-6 -6 -7 -6 -6 -6 -6 -7 -7 -7 -7 -8 -6 -6 -6 -6 -5 -5 -5 -5 -6 -7 -7 -7 -7 -7 -7
-7 -7 -7 -7 -7 -7 -7 -7 -8 -8 -7 -8 -8 -8 -8 -7 -6 -6 -6 -7 -7 -7 -6 -7 -8 -8 -8
-6 -6 -6 -7 -7 -7 -7 -8 -8 -8 -8 -9 -9 -10 -10 -9 -8 -8 -7 -6 -6 -7 -7 -8 -7 -8 -8
-7 -7 -7 -7 -7 -7 -8 -8 -9 -9 -8 -9 -10 -10 -11 -11 -8 -9 -8 -7 -7 -8 -7 -7 -8 -8 -8
-7 -7 -7 -7 -7 -8 -8 -9 -9 -9 -8 -9 -10 -9 -10 -10 -10 -9 -9 -8 -8 -8 -7 -8 -8 -8 -8
-7 -7 -7 -8 -8 -8 -8 -8 -8 -8 -8 -8 -9 -9 -10 -11 -10 -10 -9 -8 -9 -9 -9 -9 -9 -9 -8
-8 -8 -8 -9 -9 -9 -10 -8 -9 -7 -6 -7 -9 -10 -10 -10 -10 -10 -9 -11 -9 -9 -10 -9 -9 -9 -9
-8 -9 -9 -9 -10 -10 -10 -10 -10 -9 -8 -8 -8 -9 -10 -10 -10 -10 -9 -9 -9 -9 -10 -10 -9 -9 -10
-9 -9 -10 -10 -11 -10 -10 -11 -10 -9 -9 -9 -9 -9 -9 -9 -9 -9 -9 -9 -9 -10 -11 -11 -10 -10 -10
-10 -10 -11 -11 -11 -11 -10 -10 -10 -10 -9 -9 -9 -10 -10 -11 -9 -10 -10 -10 -10 -11 -10 -11 -11 -10 -10

GFSFLT2_850_temp_141.txt.gz
Temp
1 0 0 -0 -0 -0 -1 -1 -1 -2 -3 -3 -2 -2 -2 -2 -3 -4 -4 -2 -2 -0 0 -2 -3 -2 1
1 1 -0 -1 -1 -1 -2 -2 -2 -3 -3 -3 -3 -3 -3 -5 -4 -2 -0 -1 -1 -0 -0 -0 -3 -4 -4
0 -0 -1 -1 -2 -2 -2 -2 -3 -3 -4 -4 -3 -3 -4 -5 -4 -4 -2 -2 -0 -1 -1 -0 -1 -2 -1
-2 -1 -2 -2 -3 -3 -3 -3 -3 -3 -4 -4 -4 -5 -5 -4 -3 -3 -3 -3 -3 -3 -1 -2 -3 -0 -0
-3 -3 -2 -3 -4 -4 -4 -4 -3 -4 -4 -4 -5 -4 -5 -5 -4 -3 -3 -3 -3 -3 -3 -4 -3 -2 -3
-3 -3 -2 -3 -4 -5 -5 -5 -6 -4 -5 -5 -5 -4 -4 -4 -4 -4 -4 -4 -3 -3 -3 -3 -3 -4 -5
-4 -3 -4 -4 -5 -6 -6 -6 -6 -6 -6 -6 -6 -4 -4 -4 -4 -4 -4 -4 -4 -4 -5 -5 -5 -5 -5
-4 -4 -4 -5 -6 -6 -6 -6 -6 -6 -6 -7 -6 -5 -5 -4 -4 -4 -3 -4 -4 -5 -5 -5 -4 -4 -4
-3 -4 -4 -5 -6 -6 -6 -6 -6 -7 -7 -7 -5 -6 -6 -4 -4 -4 -4 -5 -5 -5 -5 -5 -4 -4 -4
-4 -4 -5 -6 -6 -7 -7 -7 -7 -7 -7 -7 -7 -8 -8 -6 -5 -5 -5 -5 -5 -5 -5 -5 -5 -6 -5
-4 -4 -5 -6 -6 -6 -7 -7 -7 -7 -7 -8 -8 -9 -9 -9 -7 -6 -5 -5 -5 -5 -5 -5 -6 -6 -6
-5 -5 -5 -6 -6 -7 -7 -7 -7 -7 -8 -9 -9 -9 -10 -10 -10 -7 -6 -6 -6 -5 -5 -5 -5 -6 -7
-6 -6 -6 -6 -7 -7 -8 -8 -8 -8 -8 -9 -9 -9 -10 -10 -10 -8 -7 -6 -6 -6 -6 -6 -6 -6 -6
-6 -6 -7 -7 -7 -8 -8 -8 -9 -9 -8 -9 -9 -9 -9 -9 -9 -9 -7 -9 -7 -7 -7 -7 -7 -7 -7
-6 -7 -7 -7 -7 -8 -8 -9 -10 -10 -9 -8 -8 -9 -10 -10 -10 -8 -8 -7 -8 -8 -8 -8 -8 -7 -7
-7 -7 -8 -8 -8 -9 -9 -10 -11 -11 -9 -8 -9 -10 -10 -9 -8 -8 -7 -8 -8 -8 -8 -9 -8 -8 -8
-7 -7 -8 -8 -9 -9 -10 -11 -11 -10 -9 -9 -9 -10 -11 -11 -8 -8 -9 -9 -9 -9 -9 -9 -9 -8 -8

GFSFLT2_850_temp_144.txt.gz
Temp
2 1 1 0 -0 -0 -0 -0 -0 -1 -1 -1 -1 -2 -2 -1 -2 -3 -4 -4 -2 -1 0 -1 -3 -3 -3
2 1 1 -0 -1 -1 -1 -1 -1 -1 -2 -3 -2 -2 -2 -2 -3 -3 -3 -4 -2 -1 -1 -0 -2 -3 -3
0 1 0 -0 -1 -1 -1 -1 -1 -2 -2 -3 -3 -3 -3 -2 -5 -4 -2 -3 -3 -2 -2 -2 -1 -3 -4
-1 -1 -1 -1 -1 -1 -1 -2 -2 -2 -3 -3 -3 -3 -4 -4 -3 -3 -3 -3 -3 -3 -4 -2 -2 -4 -3
-1 -1 -1 -1 -1 -3 -3 -3 -2 -2 -3 -3 -4 -4 -4 -4 -4 -3 -3 -3 -3 -4 -3 -3 -5 -5 -4
-3 -2 -1 -2 -2 -3 -4 -4 -4 -3 -4 -4 -5 -4 -4 -4 -4 -4 -4 -3 -4 -3 -3 -3 -4 -4 -6
-3 -2 -2 -2 -3 -4 -4 -5 -5 -5 -6 -5 -5 -4 -4 -4 -4 -4 -4 -4 -4 -3 -3 -3 -4 -4 -4
-4 -3 -3 -3 -4 -4 -5 -6 -6 -5 -6 -7 -5 -5 -5 -4 -4 -5 -5 -4 -4 -4 -4 -4 -4 -4 -3
-3 -4 -4 -4 -4 -5 -5 -6 -6 -7 -7 -7 -6 -6 -6 -5 -4 -4 -4 -5 -5 -6 -6 -5 -5 -4 -4
-3 -4 -4 -4 -4 -6 -6 -5 -6 -7 -7 -7 -7 -7 -8 -6 -5 -6 -6 -6 -5 -5 -5 -5 -5 -5 -4
-4 -4 -5 -4 -5 -5 -6 -6 -7 -7 -7 -7 -7 -8 -9 -9 -7 -6 -6 -5 -5 -5 -5 -5 -5 -5 -5
-5 -5 -5 -4 -4 -5 -6 -6 -6 -7 -7 -8 -8 -9 -9 -9 -10 -8 -7 -6 -6 -5 -5 -5 -5 -5 -6
-6 -5 -5 -5 -5 -6 -6 -7 -7 -7 -8 -8 -8 -9 -10 -10 -10 -9 -8 -6 -6 -5 -5 -6 -6 -6 -5
-5 -5 -6 -6 -6 -6 -7 -7 -8 -8 -8 -8 -9 -9 -10 -10 -10 -9 -8 -9 -6 -6 -7 -7 -6 -6 -6
-6 -6 -6 -6 -7 -7 -7 -8 -8 -8 -8 -9 -9 -10 -10 -10 -10 -10 -8 -7 -7 -7 -8 -8 -7 -6 -6
-6 -7 -7 -7 -7 -7 -8 -8 -8 -9 -9 -9 -9 -10 -10 -9 -9 -8 -8 -8 -7 -8 -8 -8 -8 -7 -7
-7 -7 -7 -7 -7 -8 -8 -8 -9 -9 -10 -10 -10 -11 -11 -11 -8 -9 -9 -8 -9 -9 -8 -8 -8 -7 -7

GFSFLT2_850_temp_147.txt.gz
Temp
3 3 2 1 1 0 0 1 1 1 1 1 1 0 0 0 0 -1 -4 -3 -4 -4 -3 -4 -3 -2 -2
2 3 2 1 1 0 0 0 0 0 0 0 0 -0 -1 -1 -1 -1 -4 -5 -4 -4 -4 -4 -4 -3 -3
1 2 2 1 1 0 1 0 -0 -0 -0 -0 -1 -1 -1 -1 -2 -3 -4 -4 -3 -3 -3 -3 -4 -4 -4
0 1 1 1 0 -0 -0 -0 -1 -1 -1 -1 -1 -1 -2 -2 -3 -3 -3 -3 -3 -3 -3 -4 -5 -4 -4
-0 -0 0 0 -0 -1 -2 -2 -1 -1 -1 -1 -2 -3 -3 -3 -4 -4 -3 -3 -3 -3 -4 -6 -6 -5 -4
0 -0 0 -0 -1 -3 -2 -3 -3 -2 -2 -2 -3 -3 -3 -4 -4 -4 -4 -4 -4 -4 -6 -6 -6 -6 -6
-0 -0 -1 -1 -2 -4 -3 -3 -4 -4 -4 -3 -4 -3 -3 -4 -4 -4 -4 -4 -4 -5 -5 -5 -5 -6 -6
0 -1 -2 -3 -3 -4 -4 -4 -5 -4 -5 -5 -5 -5 -4 -4 -4 -4 -4 -5 -4 -4 -4 -5 -7 -6 -5
-2 -3 -3 -3 -3 -5 -5 -5 -5 -5 -5 -6 -6 -6 -5 -5 -5 -4 -4 -5 -4 -5 -5 -6 -7 -7 -5
-2 -3 -4 -3 -4 -5 -5 -5 -5 -7 -6 -7 -7 -6 -7 -6 -5 -5 -6 -7 -7 -6 -6 -5 -5 -5 -5
-3 -3 -4 -4 -4 -5 -6 -5 -6 -6 -6 -7 -7 -8 -8 -8 -7 -7 -6 -6 -5 -6 -5 -5 -5 -5 -5
-3 -4 -4 -4 -4 -5 -5 -6 -6 -6 -6 -7 -7 -7 -8 -8 -9 -8 -7 -7 -6 -5 -5 -5 -5 -5 -5
-4 -4 -4 -4 -5 -5 -6 -6 -6 -6 -6 -7 -7 -8 -8 -9 -9 -9 -9 -8 -7 -6 -6 -5 -5 -6 -5
-4 -4 -4 -5 -6 -6 -6 -6 -6 -6 -7 -7 -8 -8 -9 -9 -9 -9 -9 -9 -7 -7 -7 -6 -6 -6 -6
-4 -5 -5 -6 -6 -6 -6 -6 -7 -7 -7 -7 -8 -9 -9 -9 -10 -10 -9 -8 -7 -7 -8 -7 -7 -6 -6
-4 -5 -5 -6 -6 -7 -6 -7 -7 -7 -8 -8 -8 -9 -10 -10 -10 -9 -8 -8 -8 -8 -8 -9 -7 -6 -6
-5 -5 -6 -6 -6 -7 -7 -7 -7 -8 -8 -8 -9 -10 -11 -11 -10 -9 -9 -8 -9 -8 -8 -8 -8 -7 -7

GFSFLT2_850_temp_150.txt.gz
Temp
2 3 3 3 3 3 2 2 3 3 2 2 2 2 2 2 1 1 1 -1 -3 -3 -3 -3 -2 -3 -2
2 1 3 2 2 1 1 2 2 2 2 2 2 2 2 1 1 1 -0 -2 -4 -4 -4 -4 -3 -4 -3
1 1 1 2 2 2 1 1 1 1 1 1 1 1 1 1 1 0 -1 -3 -4 -4 -2 -3 -4 -4 -4
1 1 1 1 0 1 0 0 0 0 0 0 -0 0 0 0 0 -0 -1 -2 -3 -3 -3 -3 -3 -5 -4
1 1 0 0 1 1 -0 0 -1 -2 -1 -1 -1 -1 -0 -0 -1 -1 -2 -2 -3 -3 -3 -3 -4 -5 -5
1 0 1 1 0 -1 -1 -2 -3 -3 -3 -2 -3 -2 -2 -1 -2 -2 -3 -3 -3 -3 -4 -4 -6 -5 -5
1 1 1 1 0 -1 -2 -2 -3 -4 -4 -5 -4 -5 -4 -2 -2 -3 -3 -3 -3 -4 -4 -6 -6 -6 -5
1 2 1 0 -1 -1 -2 -3 -4 -5 -5 -6 -5 -5 -5 -5 -4 -3 -4 -4 -4 -4 -5 -6 -6 -6 -6
1 1 0 -1 -2 -3 -4 -4 -5 -5 -5 -6 -6 -6 -6 -6 -5 -5 -4 -4 -4 -5 -5 -6 -7 -6 -6
0 -1 -1 -1 -2 -4 -4 -5 -5 -5 -5 -6 -6 -6 -6 -6 -5 -5 -5 -5 -5 -6 -7 -7 -7 -7 -7
-1 -1 -3 -3 -3 -3 -4 -4 -5 -5 -5 -6 -6 -6 -7 -7 -7 -7 -7 -7 -7 -6 -6 -6 -6 -6 -6
-3 -3 -2 -2 -2 -3 -4 -4 -5 -5 -6 -6 -6 -6 -7 -7 -8 -8 -8 -8 -8 -7 -7 -6 -6 -6 -6
-3 -3 -3 -3 -3 -4 -4 -5 -6 -6 -6 -6 -6 -6 -6 -7 -8 -8 -8 -9 -8 -9 -8 -8 -7 -6 -6
-3 -3 -4 -4 -4 -4 -5 -6 -6 -6 -6 -6 -6 -6 -7 -8 -8 -8 -9 -9 -9 -9 -9 -8 -7 -6 -6
-4 -4 -4 -4 -4 -5 -6 -6 -6 -6 -7 -6 -6 -7 -7 -8 -9 -9 -9 -9 -10 -9 -9 -9 -7 -7 -6
-5 -4 -4 -4 -4 -5 -6 -6 -6 -6 -6 -7 -7 -7 -8 -8 -8 -9 -9 -9 -9 -9 -9 -9 -8 -7 -6
-5 -5 -5 -5 -5 -5 -6 -6 -7 -7 -7 -7 -8 -8 -9 -9 -9 -10 -9 -8 -9 -9 -9 -10 -8 -7 -7

GFSFLT2_850_temp_153.txt.gz
Temp
3 3 3 3 4 3 4 4 4 4 4 4 3 3 3 3 3 2 2 2 1 -2 -3 -2 -2 -2 -2
3 3 3 3 3 2 2 3 3 3 3 3 3 3 2 2 2 2 2 2 1 -2 -3 -2 -3 -3 -2
2 2 2 1 2 2 2 2 2 2 2 2 2 2 2 2 2 2 2 1 0 -2 -3 -3 -2 -3 -3
1 1 1 2 1 1 1 1 2 1 1 1 2 1 1 1 1 1 1 1 0 -1 -2 -2 -2 -2 -2
-1 -1 -1 -0 1 2 0 1 0 -0 -0 0 0 0 0 0 0 1 1 -0 -1 -2 -2 -3 -2 -2 -3
-1 -1 -1 -1 -0 0 0 -1 -2 -0 -1 -1 -1 -2 -1 -1 -1 0 -0 -1 -2 -2 -2 -3 -3 -3 -4
-1 -1 -1 -1 -1 -1 -1 -1 -1 -1 -2 -2 -2 -3 -3 -3 -2 -2 -1 -2 -2 -3 -3 -4 -5 -6 -5
-2 -1 -1 -1 -2 -2 -2 -2 -3 -3 -3 -4 -3 -3 -4 -4 -4 -3 -2 -2 -3 -3 -4 -6 -6 -6 -5
-3 -3 -2 -2 -2 -3 -4 -4 -4 -4 -3 -4 -4 -4 -4 -5 -5 -5 -5 -4 -4 -4 -5 -6 -6 -6 -6
-3 -3 -3 -3 -3 -3 -4 -4 -4 -4 -4 -4 -4 -5 -6 -5 -4 -5 -4 -4 -4 -5 -5 -5 -7 -6 -6
-4 -4 -3 -3 -3 -3 -3 -4 -4 -4 -4 -4 -4 -5 -6 -6 -6 -5 -5 -5 -5 -6 -6 -6 -7 -7 -7
-4 -4 -4 -3 -3 -3 -3 -4 -4 -4 -4 -5 -5 -5 -6 -6 -6 -6 -7 -7 -7 -6 -7 -7 -7 -7 -7
-5 -4 -4 -4 -4 -4 -4 -3 -4 -4 -5 -5 -5 -6 -6 -6 -6 -6 -7 -7 -8 -8 -8 -8 -8 -8 -7
-5 -5 -5 -4 -4 -4 -4 -4 -5 -5 -5 -5 -5 -6 -6 -6 -6 -6 -7 -7 -8 -8 -8 -8 -8 -8 -8
-6 -5 -5 -5 -5 -4 -4 -5 -5 -5 -5 -6 -6 -6 -6 -6 -7 -7 -7 -8 -8 -8 -8 -8 -9 -8 -8
-6 -6 -6 -5 -5 -5 -5 -5 -5 -6 -6 -6 -6 -6 -6 -7 -7 -7 -8 -8 -8 -9 -9 -9 -10 -9 -7
-6 -6 -6 -6 -5 -5 -5 -5 -5 -6 -6 -6 -6 -6 -7 -7 -7 -7 -7 -8 -8 -9 -9 -9 -8 -8 -7

GFSFLT2_850_temp_156.txt.gz
Temp
3 4 4 3 3 3 3 3 3 3 3 3 4 4 3 3 3 3 3 3 3 3 3 3 2 -1 -2
2 3 3 3 2 2 2 2 3 3 3 3 3 3 3 3 3 3 3 3 2 3 2 2 -1 -0 -3
1 1 1 1 2 1 1 1 2 2 2 2 2 2 2 2 2 2 2 2 2 2 2 1 1 1 -1
-0 -0 -0 -0 -0 -0 0 1 2 2 2 2 1 1 1 2 1 1 1 1 1 1 1 1 1 0 0
-1 -1 -1 -2 -2 -2 -1 -1 -0 0 1 1 1 1 1 1 1 1 0 0 0 0 -0 -0 -0 -0 -1
-2 -2 -2 -2 -1 -1 -2 -2 -2 -2 -0 1 1 0 0 0 0 -0 -0 0 -0 -0 -1 -1 -1 -1 -2
-3 -3 -3 -3 -3 -2 -2 -3 -3 -2 -2 -3 -2 -1 -1 -1 -1 -1 -1 -1 -1 -1 -3 -3 -3 -4 -4
-3 -3 -3 -4 -3 -3 -3 -3 -3 -3 -3 -4 -3 -2 -2 -2 -2 -2 -2 -2 -3 -3 -4 -4 -5 -5 -5
-4 -4 -4 -4 -4 -3 -3 -3 -3 -3 -3 -4 -4 -4 -3 -3 -3 -3 -3 -3 -4 -5 -5 -5 -5 -5 -5
-5 -4 -4 -4 -4 -4 -4 -4 -3 -4 -3 -4 -4 -4 -4 -4 -3 -4 -4 -4 -5 -5 -5 -5 -5 -6 -6
-6 -5 -5 -5 -5 -4 -4 -4 -4 -4 -3 -4 -4 -4 -4 -4 -4 -4 -5 -5 -5 -5 -4 -5 -6 -7 -7
-6 -5 -5 -5 -5 -5 -4 -4 -4 -4 -4 -4 -4 -4 -4 -5 -5 -5 -5 -5 -5 -5 -5 -6 -6 -6 -7
-6 -6 -5 -5 -5 -5 -5 -5 -5 -4 -4 -4 -4 -4 -4 -5 -5 -5 -6 -6 -6 -6 -6 -7 -6 -7 -7
-6 -6 -6 -6 -6 -6 -6 -5 -5 -5 -5 -5 -5 -4 -5 -5 -5 -6 -6 -6 -6 -7 -7 -7 -7 -7 -8
-7 -7 -7 -7 -6 -6 -6 -6 -5 -5 -5 -5 -5 -5 -5 -5 -6 -6 -6 -6 -6 -7 -7 -7 -7 -8 -8
-7 -7 -7 -7 -6 -6 -6 -6 -6 -5 -5 -5 -6 -5 -6 -6 -6 -6 -6 -6 -7 -7 -7 -8 -7 -8 -8
-7 -7 -7 -7 -7 -6 -6 -6 -5 -6 -5 -5 -6 -6 -6 -7 -6 -6 -7 -7 -7 -7 -8 -8 -8 -8 -8

GFSFLT2_850_temp_162.txt.gz
Temp
1 2 2 2 2 2 2 2 2 1 1 1 1 1 1 1 1 1 1 2 2 2 3 1 -0 -0 -0
-0 -0 -0 0 1 1 1 1 1 1 1 1 1 1 0 -0 -0 0 0 1 1 1 2 2 -0 -0 -0
-1 -1 -1 -2 -2 -1 -1 -0 -0 -1 -1 -1 -1 -0 -0 -0 -0 -0 0 0 1 1 1 1 1 -1 -1
-1 -1 -2 -2 -3 -3 -3 -3 -3 -3 -2 -2 -2 -1 -1 -1 -1 -1 -1 -1 -0 -0 0 0 1 1 -1
-2 -2 -3 -3 -4 -4 -4 -4 -3 -4 -4 -3 -3 -2 -2 -2 -2 -1 -1 -1 -1 -1 -1 -1 -1 -0 -1
-3 -4 -4 -4 -4 -5 -4 -5 -4 -4 -4 -4 -4 -4 -4 -2 -2 -2 -2 -2 -2 -2 -2 -2 -1 -2 -2
-4 -4 -5 -5 -5 -5 -5 -5 -5 -5 -5 -5 -5 -4 -4 -4 -3 -2 -2 -2 -2 -3 -2 -3 -2 -2 -2
-5 -5 -6 -5 -6 -6 -5 -5 -5 -5 -5 -5 -4 -4 -4 -4 -4 -2 -2 -3 -3 -3 -3 -3 -3 -2 -3
-6 -6 -6 -6 -6 -6 -6 -6 -6 -5 -5 -5 -5 -4 -5 -5 -5 -3 -2 -3 -3 -3 -3 -3 -3 -3 -4
-6 -6 -6 -5 -6 -6 -7 -7 -6 -6 -5 -6 -5 -6 -5 -5 -4 -4 -4 -3 -3 -3 -4 -3 -4 -3 -4
-6 -6 -6 -6 -6 -7 -7 -7 -7 -7 -6 -6 -6 -6 -6 -5 -5 -5 -5 -3 -4 -3 -3 -4 -4 -4 -4
-7 -7 -7 -7 -7 -7 -7 -7 -7 -7 -7 -7 -7 -7 -6 -6 -5 -5 -5 -4 -4 -4 -4 -4 -4 -3 -4
-8 -8 -8 -7 -7 -7 -6 -6 -7 -7 -7 -7 -7 -6 -6 -6 -6 -5 -5 -5 -5 -4 -5 -4 -4 -4 -4
-8 -8 -7 -7 -7 -7 -7 -7 -7 -7 -7 -7 -6 -6 -6 -6 -6 -6 -5 -5 -5 -5 -5 -5 -5 -5 -6
-8 -8 -7 -7 -7 -7 -7 -7 -7 -7 -7 -6 -6 -6 -6 -6 -6 -6 -5 -5 -5 -5 -6 -6 -6 -6 -6
-8 -8 -8 -7 -8 -7 -7 -7 -7 -7 -7 -6 -6 -6 -6 -6 -6 -6 -6 -5 -5 -6 -6 -6 -6 -6 -6
-8 -8 -8 -7 -8 -8 -8 -8 -7 -7 -7 -6 -6 -6 -6 -6 -6 -6 -6 -6 -6 -6 -6 -6 -6 -6 -7

GFSFLT2_850_temp_165.txt.gz
Temp
1 1 3 3 3 2 1 1 2 2 2 2 1 1 1 1 1 -0 -0 -0 -0 -0 -0 0 0 0 1
-1 -0 -1 -0 0 1 1 1 1 1 0 0 1 1 1 1 0 0 0 -0 -0 -1 -1 -0 -0 0 1
-1 -1 -1 -1 -1 -1 -0 0 1 0 -1 -1 -1 -1 -1 -1 -1 -1 -1 -1 -1 -0 -0 -0 -0 -1 -0
-1 -1 -2 -2 -3 -4 -4 -4 -2 -2 -1 -2 -2 -2 -1 -1 -2 -3 -2 -2 -1 -1 -0 -0 -0 -0 -0
-3 -3 -4 -5 -5 -5 -5 -5 -5 -5 -5 -5 -3 -3 -2 -2 -2 -2 -3 -2 -2 -2 -2 -1 -1 -1 -1
-5 -5 -5 -5 -6 -6 -6 -6 -6 -5 -5 -5 -5 -5 -5 -5 -4 -2 -3 -3 -3 -3 -2 -2 -2 -1 -1
-6 -6 -6 -6 -6 -6 -6 -6 -5 -5 -6 -6 -5 -6 -5 -5 -4 -4 -4 -4 -4 -4 -3 -3 -2 -2 -2
-6 -6 -6 -6 -6 -6 -6 -6 -6 -5 -6 -7 -6 -6 -5 -5 -5 -5 -5 -5 -3 -4 -4 -3 -3 -3 -3
-6 -6 -6 -6 -6 -6 -6 -6 -7 -6 -7 -7 -6 -6 -6 -5 -4 -4 -4 -5 -4 -4 -4 -4 -3 -3 -2
-6 -7 -7 -7 -7 -7 -7 -7 -7 -7 -7 -7 -7 -7 -7 -6 -6 -5 -5 -5 -5 -5 -4 -4 -4 -4 -3
-7 -7 -7 -7 -7 -7 -7 -8 -8 -7 -7 -7 -7 -7 -7 -7 -6 -6 -6 -5 -5 -4 -4 -4 -4 -4 -3
-7 -7 -7 -8 -7 -7 -7 -7 -7 -7 -7 -7 -7 -8 -7 -7 -7 -6 -7 -6 -6 -5 -5 -4 -5 -4 -4
-8 -8 -8 -8 -8 -7 -7 -7 -7 -8 -7 -7 -7 -7 -7 -7 -7 -7 -7 -6 -6 -5 -5 -5 -5 -4 -4
-9 -8 -8 -8 -8 -8 -8 -8 -8 -7 -7 -7 -7 -7 -7 -6 -6 -6 -6 -6 -5 -5 -5 -5 -6 -5 -4
-9 -9 -8 -8 -8 -8 -8 -8 -8 -8 -7 -6 -7 -6 -6 -6 -6 -6 -6 -6 -6 -6 -5 -6 -6 -6 -5
-9 -9 -8 -8 -8 -8 -8 -8 -8 -8 -8 -7 -7 -6 -6 -5 -6 -6 -6 -6 -6 -6 -6 -6 -6 -6 -6
-9 -9 -9 -8 -8 -8 -8 -8 -8 -8 -7 -7 -7 -7 -7 -6 -6 -6 -6 -6 -6 -6 -6 -6 -6 -6 -6

GFSFLT2_850_temp_168.txt.gz
Temp
0 0 1 1 2 2 2 2 1 1 0 0 1 1 1 1 1 0 0 -1 0 1 1 1 1 1 1
-0 -0 -1 -1 -1 -1 0 0 0 -0 -1 -0 -0 -0 -1 -0 -0 -1 -1 -2 -1 -1 -0 0 0 0 1
-1 -2 -2 -2 -2 -3 -2 -3 -2 -1 -1 -1 -1 -1 -1 -3 -3 -4 -3 -3 -3 -2 -2 -1 -0 -0 -0
-2 -3 -5 -5 -6 -6 -6 -6 -6 -6 -5 -3 -2 -2 -3 -3 -4 -3 -3 -3 -3 -3 -3 -2 -1 -1 -0
-5 -6 -6 -6 -6 -6 -6 -6 -6 -6 -5 -5 -5 -5 -4 -3 -3 -3 -3 -4 -4 -4 -4 -4 -3 -2 -2
-6 -6 -6 -6 -6 -6 -6 -6 -6 -5 -6 -5 -6 -5 -5 -4 -4 -3 -5 -5 -5 -4 -4 -4 -4 -4 -2
-6 -6 -6 -6 -7 -6 -6 -6 -6 -6 -6 -6 -6 -6 -5 -5 -4 -4 -5 -5 -5 -5 -4 -4 -4 -4 -3
-6 -6 -6 -6 -6 -6 -6 -6 -6 -7 -7 -7 -6 -6 -6 -6 -6 -5 -4 -4 -5 -5 -5 -4 -4 -4 -3
-6 -7 -7 -6 -7 -7 -7 -8 -8 -8 -8 -7 -7 -7 -7 -6 -5 -6 -6 -6 -6 -6 -5 -5 -4 -4 -4
-7 -7 -7 -7 -7 -8 -8 -8 -8 -8 -8 -8 -8 -8 -7 -7 -7 -6 -6 -6 -6 -5 -5 -6 -5 -5 -4
-8 -8 -7 -7 -8 -8 -8 -8 -8 -8 -7 -8 -8 -8 -8 -8 -7 -6 -6 -6 -5 -5 -5 -5 -5 -5 -5
-8 -9 -9 -9 -9 -8 -8 -8 -8 -8 -7 -8 -8 -8 -8 -8 -8 -6 -6 -6 -6 -5 -5 -6 -5 -5 -5
-9 -9 -9 -9 -8 -8 -8 -8 -8 -7 -7 -8 -8 -8 -8 -8 -7 -6 -6 -7 -6 -5 -6 -6 -5 -5 -5
-9 -9 -9 -9 -9 -8 -8 -8 -8 -7 -7 -8 -8 -7 -7 -7 -7 -7 -6 -7 -6 -6 -6 -6 -5 -5 -5
-9 -9 -9 -9 -9 -9 -8 -8 -8 -8 -8 -7 -7 -7 -7 -7 -7 -6 -6 -6 -6 -6 -6 -6 -6 -6 -6
-10 -10 -10 -10 -10 -10 -9 -9 -9 -8 -8 -8 -8 -7 -7 -6 -6 -6 -6 -7 -6 -6 -6 -6 -6 -6 -6
-10 -10 -10 -10 -10 -10 -9 -9 -9 -9 -8 -8 -8 -8 -8 -8 -7 -7 -7 -7 -7 -7 -7 -7 -6 -6 -7

GFSFLT2_850_temp_174.txt.gz
Temp
-2 -2 -3 -4 -4 -3 -2 -3 -4 -4 -3 -3 -4 -4 -4 -4 -4 -4 -3 -3 -2 -2 -2 -1 -1 0 1
-3 -4 -4 -5 -6 -6 -5 -5 -5 -5 -5 -4 -5 -5 -5 -5 -5 -4 -4 -4 -4 -3 -3 -3 -2 -2 -1
-4 -4 -6 -5 -5 -5 -5 -5 -5 -5 -5 -5 -5 -5 -5 -5 -5 -5 -5 -5 -5 -5 -5 -4 -4 -3 -3
-6 -6 -5 -4 -4 -5 -5 -5 -5 -5 -5 -5 -5 -5 -5 -5 -5 -5 -6 -6 -6 -5 -5 -5 -4 -4 -3
-6 -5 -4 -4 -5 -5 -6 -6 -6 -6 -6 -6 -6 -6 -6 -5 -6 -6 -6 -6 -6 -6 -5 -5 -5 -4 -4
-5 -5 -5 -5 -6 -6 -6 -6 -6 -6 -6 -6 -6 -6 -6 -6 -6 -7 -7 -7 -6 -6 -6 -5 -5 -5 -4
-6 -6 -6 -6 -7 -7 -7 -7 -7 -6 -7 -7 -7 -7 -7 -6 -7 -7 -7 -6 -6 -6 -6 -6 -5 -5 -5
-7 -7 -7 -7 -8 -8 -8 -8 -7 -7 -7 -8 -7 -7 -7 -7 -7 -7 -6 -6 -7 -6 -6 -6 -6 -5 -5
-7 -7 -8 -8 -9 -9 -8 -8 -8 -8 -8 -8 -8 -8 -8 -7 -6 -7 -7 -7 -7 -7 -7 -7 -6 -6 -6
-8 -8 -9 -9 -9 -9 -9 -8 -9 -8 -8 -8 -8 -8 -8 -7 -7 -7 -7 -7 -7 -7 -7 -7 -6 -6 -6
-9 -9 -9 -8 -9 -9 -9 -9 -9 -8 -8 -8 -8 -8 -8 -8 -8 -7 -7 -7 -7 -7 -7 -7 -7 -6 -6
-9 -9 -9 -9 -10 -10 -10 -9 -10 -9 -9 -9 -8 -8 -8 -8 -8 -7 -7 -7 -7 -7 -6 -7 -7 -6 -6
-9 -10 -10 -10 -10 -9 -9 -9 -9 -9 -9 -9 -9 -9 -9 -8 -8 -8 -8 -7 -7 -7 -7 -7 -7 -6 -6
-10 -10 -10 -10 -10 -10 -10 -10 -9 -9 -8 -9 -9 -9 -9 -9 -8 -7 -7 -7 -7 -7 -7 -6 -7 -6 -6
-11 -11 -11 -11 -10 -10 -10 -10 -10 -10 -9 -8 -9 -9 -9 -8 -8 -7 -8 -7 -7 -7 -7 -7 -7 -7 -6
-11 -11 -11 -11 -11 -10 -10 -10 -11 -10 -10 -9 -9 -9 -8 -8 -8 -8 -8 -8 -7 -7 -8 -8 -8 -7 -7
-10 -11 -11 -10 -10 -10 -10 -11 -11 -10 -10 -9 -9 -9 -9 -9 -8 -8 -9 -8 -8 -8 -8 -8 -8 -7 -7

GFSFLT2_850_temp_180.txt.gz
Temp
-1 -1 -0 -2 -1 -2 -3 -3 -3 -3 -3 -3 -4 -4 -4 -4 -4 -4 -4 -4 -4 -4 -4 -4 -3 -3 -3
-1 -1 -1 -2 -3 -4 -4 -5 -5 -4 -5 -5 -5 -5 -5 -5 -5 -5 -5 -5 -5 -5 -4 -4 -4 -4 -4
-2 -2 -3 -3 -4 -5 -5 -5 -5 -5 -6 -6 -6 -6 -5 -5 -6 -6 -6 -6 -5 -5 -5 -5 -5 -5 -4
-3 -3 -4 -4 -5 -5 -6 -6 -5 -5 -5 -6 -6 -6 -6 -6 -6 -7 -7 -6 -6 -5 -5 -5 -6 -5 -5
-4 -5 -5 -5 -6 -6 -7 -7 -6 -6 -7 -7 -7 -7 -7 -7 -7 -7 -6 -6 -6 -6 -6 -6 -6 -6 -5
-6 -6 -6 -6 -6 -7 -7 -7 -8 -7 -8 -7 -8 -8 -7 -7 -7 -7 -7 -6 -6 -6 -6 -6 -6 -6 -6
-6 -6 -6 -6 -7 -7 -8 -8 -8 -8 -8 -8 -8 -8 -8 -7 -7 -7 -7 -6 -7 -6 -6 -6 -6 -6 -6
-6 -6 -6 -7 -7 -8 -8 -8 -8 -8 -9 -9 -8 -8 -8 -7 -7 -7 -7 -7 -7 -7 -6 -6 -6 -6 -6
-5 -6 -7 -8 -8 -8 -8 -9 -9 -8 -8 -9 -9 -9 -9 -7 -7 -7 -7 -7 -7 -7 -7 -7 -7 -7 -6
-5 -6 -8 -8 -9 -9 -9 -9 -9 -10 -9 -10 -9 -9 -9 -8 -8 -7 -7 -7 -7 -7 -8 -8 -7 -7 -6
-8 -8 -9 -10 -10 -10 -10 -10 -10 -9 -9 -10 -9 -9 -9 -9 -9 -8 -8 -7 -6 -6 -6 -8 -8 -7 -7
-9 -9 -10 -9 -9 -9 -9 -10 -10 -10 -10 -10 -10 -10 -10 -10 -9 -9 -8 -7 -7 -7 -8 -8 -8 -7 -7
-10 -10 -9 -8 -8 -8 -8 -9 -9 -9 -9 -10 -10 -10 -10 -9 -9 -9 -9 -8 -7 -8 -8 -8 -8 -8 -8
-10 -9 -8 -8 -9 -10 -11 -10 -10 -9 -9 -10 -10 -10 -10 -10 -9 -9 -8 -9 -8 -8 -8 -8 -8 -8 -9
-9 -10 -10 -10 -10 -10 -11 -11 -11 -11 -10 -10 -10 -10 -10 -10 -9 -9 -9 -9 -9 -9 -9 -9 -8 -8 -8
-10 -11 -10 -11 -12 -11 -11 -12 -12 -11 -11 -11 -11 -11 -10 -10 -10 -10 -9 -10 -9 -9 -9 -9 -9 -8 -8
-11 -11 -12 -12 -11 -11 -12 -12 -12 -11 -11 -11 -12 -12 -12 -12 -11 -11 -11 -10 -10 -10 -10 -10 -9 -8 -8

GFSFLT2_850_temp_183.txt.gz
Temp
1 1 0 -1 -1 -1 -1 -2 -3 -3 -4 -4 -4 -5 -5 -5 -5 -5 -5 -5 -5 -4 -4 -4 -4 -4 -3
0 -0 -1 -2 -2 -3 -4 -4 -4 -5 -4 -4 -4 -5 -6 -6 -6 -5 -5 -6 -6 -5 -5 -5 -4 -4 -4
-2 -2 -2 -3 -3 -4 -4 -4 -4 -4 -4 -5 -5 -6 -6 -7 -7 -6 -7 -7 -6 -6 -5 -5 -5 -5 -5
-2 -3 -3 -4 -5 -5 -5 -4 -4 -4 -5 -5 -5 -6 -6 -6 -7 -7 -7 -7 -6 -6 -6 -5 -6 -6 -5
-3 -4 -5 -6 -6 -6 -6 -5 -4 -5 -5 -5 -6 -6 -6 -7 -7 -7 -7 -7 -6 -6 -6 -6 -6 -6 -5
-5 -6 -6 -6 -6 -6 -7 -7 -8 -6 -7 -6 -7 -6 -7 -8 -7 -8 -8 -7 -6 -7 -6 -6 -6 -6 -6
-6 -6 -6 -6 -7 -8 -8 -8 -8 -7 -8 -8 -8 -8 -8 -7 -7 -8 -8 -7 -7 -7 -7 -6 -6 -6 -6
-5 -5 -6 -7 -8 -8 -8 -9 -8 -7 -9 -9 -8 -8 -8 -7 -8 -7 -7 -8 -8 -8 -7 -7 -7 -7 -6
-4 -5 -6 -7 -7 -7 -8 -9 -9 -9 -9 -10 -10 -9 -9 -7 -7 -7 -7 -7 -7 -8 -8 -8 -7 -7 -7
-4 -5 -6 -6 -7 -8 -9 -10 -11 -11 -10 -10 -10 -10 -10 -9 -8 -7 -7 -7 -7 -7 -7 -7 -7 -7 -8
-5 -5 -5 -6 -8 -9 -10 -10 -11 -10 -10 -11 -10 -10 -10 -10 -9 -7 -7 -7 -7 -7 -7 -8 -8 -8 -8
-6 -6 -7 -8 -9 -10 -10 -10 -10 -11 -10 -10 -11 -11 -11 -10 -10 -9 -8 -8 -7 -8 -8 -8 -8 -8 -9
-8 -9 -9 -9 -9 -9 -9 -9 -9 -9 -9 -10 -11 -11 -11 -11 -10 -10 -10 -9 -8 -9 -8 -8 -8 -8 -8
-11 -11 -10 -10 -10 -10 -10 -10 -9 -8 -9 -10 -10 -11 -11 -11 -10 -10 -10 -10 -9 -9 -9 -9 -8 -8 -8
-11 -12 -12 -11 -10 -10 -11 -11 -11 -10 -10 -10 -10 -11 -11 -11 -10 -10 -10 -10 -10 -10 -9 -9 -8 -8 -8
-11 -11 -12 -12 -12 -12 -11 -12 -12 -11 -11 -11 -11 -11 -11 -10 -10 -10 -10 -10 -10 -9 -9 -10 -9 -7 -8
-11 -11 -11 -12 -12 -11 -11 -12 -12 -12 -11 -11 -11 -11 -12 -12 -11 -11 -11 -10 -10 -10 -10 -10 -10 -8 -8

GFSFLT2_850_temp_186.txt.gz
Temp
1 1 0 0 -0 -1 -1 -1 -1 -1 -2 -2 -2 -3 -6 -6 -6 -6 -5 -5 -5 -5 -5 -4 -4 -4 -4
1 0 -1 -1 -1 -1 -1 -1 -1 -3 -3 -3 -5 -4 -4 -6 -6 -6 -6 -6 -6 -6 -5 -5 -5 -5 -5
-0 -1 -1 -2 -1 -2 -2 -2 -3 -4 -4 -4 -5 -5 -5 -5 -6 -6 -6 -7 -7 -6 -6 -5 -5 -5 -5
-1 -2 -2 -3 -3 -4 -2 -3 -3 -4 -4 -5 -5 -5 -5 -5 -5 -6 -6 -7 -7 -6 -6 -6 -5 -5 -5
-2 -2 -3 -4 -4 -5 -5 -5 -4 -5 -5 -4 -5 -5 -5 -5 -5 -6 -8 -8 -7 -6 -6 -6 -6 -6 -5
-3 -4 -4 -5 -6 -6 -7 -7 -7 -5 -6 -4 -5 -5 -6 -5 -6 -6 -8 -8 -7 -7 -7 -7 -7 -6 -6
-4 -5 -5 -6 -7 -7 -7 -7 -7 -6 -7 -6 -6 -5 -6 -5 -6 -8 -8 -8 -8 -7 -8 -7 -7 -7 -7
-5 -5 -6 -8 -8 -8 -8 -8 -7 -6 -7 -7 -7 -7 -7 -6 -6 -6 -8 -8 -8 -8 -8 -8 -7 -7 -7
-5 -7 -7 -7 -7 -7 -7 -7 -7 -7 -7 -10 -9 -8 -7 -6 -6 -7 -8 -7 -7 -7 -8 -8 -8 -8 -7
-5 -6 -6 -6 -7 -8 -8 -8 -9 -10 -9 -11 -10 -10 -10 -9 -9 -8 -7 -7 -7 -7 -7 -8 -8 -8 -8
-5 -5 -5 -6 -7 -7 -8 -9 -10 -11 -10 -11 -11 -10 -11 -11 -9 -8 -8 -8 -7 -7 -8 -8 -8 -8 -8
-6 -6 -6 -6 -7 -7 -8 -9 -10 -11 -10 -11 -11 -11 -11 -11 -10 -9 -9 -8 -8 -8 -9 -8 -8 -8 -8
-8 -7 -7 -8 -8 -9 -9 -10 -10 -10 -10 -10 -11 -11 -11 -11 -11 -10 -11 -9 -9 -10 -9 -9 -8 -8 -8
-8 -8 -9 -10 -10 -10 -11 -11 -11 -9 -9 -10 -11 -11 -11 -11 -11 -10 -10 -11 -10 -9 -10 -9 -8 -8 -8
-9 -10 -11 -11 -11 -11 -11 -12 -12 -11 -10 -10 -11 -11 -11 -11 -10 -10 -10 -10 -10 -10 -10 -9 -8 -8 -8
-10 -11 -11 -11 -12 -12 -12 -12 -11 -11 -11 -11 -11 -11 -11 -11 -11 -10 -10 -10 -10 -10 -10 -9 -8 -7 -8
-10 -11 -11 -12 -12 -12 -11 -12 -11 -12 -11 -11 -11 -11 -11 -12 -11 -12 -11 -10 -10 -10 -10 -9 -9 -8 -8

GFSFLT2_850_temp_189.txt.gz
Temp
2 2 1 1 1 0 -0 -0 -0 -1 -1 -1 -1 -2 -3 -4 -6 -6 -6 -6 -6 -6 -5 -5 -5 -4 -4
2 1 1 0 0 -0 -0 -1 -1 -1 -2 -1 -2 -3 -3 -4 -4 -5 -7 -7 -7 -6 -6 -5 -5 -5 -4
2 1 -0 -1 -1 -1 -0 -1 -1 -2 -2 -2 -3 -3 -4 -5 -5 -5 -5 -5 -7 -7 -6 -6 -5 -5 -5
0 -1 -1 -1 -2 -2 -0 -1 -1 -2 -2 -2 -3 -4 -5 -5 -5 -5 -5 -7 -7 -7 -6 -6 -6 -6 -6
-1 -1 -1 -2 -2 -3 -4 -3 -1 -3 -2 -3 -3 -4 -5 -5 -6 -5 -6 -8 -7 -7 -6 -6 -6 -7 -6
-1 -2 -3 -4 -4 -4 -5 -5 -5 -4 -5 -3 -4 -4 -4 -5 -5 -5 -6 -8 -8 -7 -7 -7 -7 -7 -7
-2 -3 -4 -5 -6 -6 -6 -5 -6 -5 -7 -4 -5 -4 -5 -5 -5 -5 -6 -8 -8 -8 -8 -8 -7 -7 -7
-3 -4 -5 -6 -7 -7 -7 -7 -6 -6 -7 -6 -6 -6 -5 -5 -6 -6 -6 -8 -8 -7 -9 -8 -8 -8 -7
-5 -6 -6 -6 -7 -7 -7 -7 -7 -6 -7 -8 -8 -7 -7 -6 -6 -6 -7 -8 -7 -7 -9 -9 -8 -8 -8
-4 -5 -6 -6 -7 -8 -8 -9 -9 -9 -9 -10 -10 -10 -11 -9 -8 -7 -7 -7 -7 -7 -8 -9 -9 -9 -8
-4 -5 -6 -6 -7 -7 -8 -9 -10 -10 -9 -11 -11 -11 -12 -11 -10 -8 -8 -8 -7 -7 -8 -9 -9 -9 -8
-5 -5 -6 -6 -6 -8 -9 -9 -10 -10 -10 -11 -12 -11 -12 -12 -11 -9 -9 -9 -9 -8 -9 -9 -8 -8 -8
-6 -6 -7 -7 -8 -9 -9 -10 -10 -9 -10 -11 -11 -12 -12 -12 -12 -10 -10 -9 -9 -10 -10 -9 -8 -8 -8
-7 -7 -8 -8 -8 -10 -10 -11 -11 -9 -9 -10 -11 -12 -12 -12 -12 -10 -10 -11 -10 -10 -10 -9 -8 -8 -8
-7 -8 -8 -9 -9 -10 -11 -11 -12 -11 -10 -10 -11 -12 -12 -12 -11 -10 -10 -10 -10 -10 -10 -10 -9 -8 -8
-8 -8 -9 -10 -10 -10 -11 -11 -12 -11 -11 -11 -11 -11 -11 -10 -10 -10 -10 -10 -10 -10 -10 -10 -9 -8 -8
-7 -8 -9 -10 -10 -10 -11 -11 -11 -11 -11 -11 -11 -12 -12 -12 -11 -11 -11 -10 -10 -10 -10 -10 -10 -8 -8

GFSFLT2_850_temp_192.txt.gz
Temp
3 2 2 2 1 0 0 0 0 -0 -0 -0 -0 -1 -1 -2 -2 -2 -3 -6 -6 -6 -6 -5 -5 -4 -4
2 1 2 1 1 1 0 -0 -0 -1 -1 -0 -1 -2 -2 -2 -3 -3 -3 -4 -5 -7 -6 -6 -5 -5 -5
2 2 1 0 1 0 -0 -1 -1 -1 -1 -1 -2 -2 -2 -3 -3 -4 -4 -4 -5 -7 -7 -6 -6 -5 -5
2 1 0 0 -0 -1 0 -0 0 -1 -2 -2 -2 -3 -3 -3 -4 -5 -5 -5 -8 -7 -7 -7 -6 -6 -6
1 0 -0 -1 -2 -2 -2 -1 -0 -1 -1 -1 -2 -2 -3 -4 -5 -4 -4 -7 -8 -7 -7 -7 -7 -7 -6
1 -0 -2 -2 -2 -3 -3 -3 -3 -2 -4 -1 -3 -3 -3 -4 -4 -4 -5 -7 -8 -7 -8 -8 -7 -7 -7
-0 -2 -2 -3 -3 -3 -4 -5 -5 -4 -7 -5 -4 -4 -4 -5 -5 -5 -5 -8 -8 -8 -9 -8 -8 -8 -7
-1 -2 -3 -4 -5 -5 -6 -6 -5 -5 -7 -7 -6 -6 -5 -5 -5 -5 -6 -7 -8 -7 -8 -9 -8 -8 -8
-3 -3 -4 -5 -7 -6 -7 -7 -7 -6 -7 -9 -9 -9 -8 -6 -6 -6 -7 -7 -7 -7 -8 -9 -9 -9 -8
-3 -4 -5 -5 -7 -7 -8 -9 -9 -10 -9 -11 -11 -12 -11 -10 -8 -7 -7 -7 -8 -8 -8 -8 -10 -9 -10
-4 -5 -5 -6 -7 -7 -9 -10 -10 -11 -10 -12 -12 -12 -12 -12 -10 -8 -9 -8 -9 -8 -8 -9 -9 -9 -9
-4 -4 -5 -5 -7 -8 -9 -9 -10 -10 -11 -11 -12 -12 -12 -12 -12 -9 -10 -9 -9 -9 -9 -9 -9 -8 -9
-4 -5 -5 -6 -7 -7 -8 -9 -10 -9 -10 -11 -11 -12 -12 -12 -12 -11 -11 -9 -10 -10 -10 -10 -9 -8 -8
-5 -6 -6 -6 -6 -8 -9 -10 -10 -8 -9 -10 -11 -12 -12 -12 -12 -11 -10 -11 -10 -10 -10 -10 -9 -9 -9
-6 -6 -7 -8 -8 -9 -10 -10 -10 -10 -9 -10 -10 -11 -11 -11 -11 -10 -10 -10 -10 -10 -10 -10 -10 -9 -9
-7 -7 -8 -9 -10 -9 -10 -10 -10 -10 -10 -10 -11 -11 -11 -10 -11 -11 -10 -10 -10 -10 -10 -10 -10 -9 -9
-7 -8 -9 -9 -9 -9 -10 -10 -10 -11 -11 -11 -11 -12 -12 -12 -11 -11 -11 -10 -10 -10 -10 -10 -10 -9 -9

GFSFLT2_850_temp_195.txt.gz
Temp
5 3 2 2 2 1 1 1 1 0 0 0 -0 -1 -1 -0 -1 -1 -1 -1 -1 -2 -4 -5 -5 -4 -4
4 3 2 1 1 0 1 1 0 -0 -0 -0 -1 -1 -1 -1 -1 -1 -1 -2 -2 -3 -6 -6 -6 -5 -5
4 2 1 1 1 0 0 0 -0 -0 -0 -1 -2 -2 -2 -2 -2 -2 -2 -3 -4 -5 -7 -6 -6 -6 -5
2 2 1 1 1 1 1 0 0 -0 -1 -1 -2 -2 -2 -2 -3 -3 -3 -3 -4 -7 -7 -7 -7 -7 -6
2 1 0 0 -0 -0 -1 -0 -0 -1 -1 -2 -2 -2 -3 -3 -4 -4 -4 -4 -6 -7 -7 -7 -7 -7 -7
1 1 -0 -1 -2 -2 -2 -2 -1 -3 -2 -0 -3 -3 -3 -4 -4 -4 -4 -6 -8 -7 -7 -7 -8 -8 -7
1 -1 -1 -2 -3 -3 -4 -4 -4 -4 -6 -3 -3 -3 -4 -4 -4 -4 -7 -8 -8 -8 -7 -7 -8 -8 -8
-0 -1 -2 -3 -4 -4 -5 -4 -4 -5 -7 -8 -7 -7 -5 -5 -5 -6 -8 -7 -8 -8 -7 -7 -8 -9 -9
-1 -3 -4 -5 -5 -5 -5 -5 -6 -5 -7 -9 -9 -10 -11 -8 -6 -6 -7 -8 -8 -8 -8 -8 -9 -10 -9
-3 -3 -4 -4 -5 -5 -6 -7 -8 -9 -9 -11 -12 -12 -12 -10 -9 -8 -7 -7 -8 -8 -8 -8 -9 -9 -10
-2 -3 -3 -4 -5 -6 -8 -8 -8 -9 -10 -12 -12 -12 -13 -13 -12 -9 -9 -8 -8 -8 -9 -9 -9 -9 -10
-3 -3 -4 -5 -6 -7 -8 -8 -8 -10 -10 -11 -11 -11 -12 -12 -12 -10 -9 -9 -9 -9 -10 -10 -9 -9 -9
-3 -4 -5 -5 -6 -7 -7 -9 -8 -8 -9 -10 -11 -11 -12 -12 -11 -11 -10 -9 -9 -10 -10 -10 -9 -9 -9
-4 -4 -5 -5 -6 -8 -8 -8 -8 -7 -8 -10 -11 -11 -11 -11 -11 -11 -10 -11 -10 -10 -10 -10 -9 -9 -9
-5 -5 -6 -6 -7 -7 -8 -9 -9 -9 -9 -9 -10 -10 -11 -11 -11 -10 -10 -10 -10 -10 -10 -10 -10 -10 -9
-5 -5 -6 -6 -7 -7 -9 -10 -10 -10 -10 -10 -10 -11 -11 -10 -10 -11 -11 -11 -10 -10 -10 -11 -10 -10 -10
-5 -6 -6 -7 -8 -9 -10 -10 -10 -10 -10 -10 -11 -11 -12 -12 -11 -11 -12 -11 -11 -10 -10 -11 -11 -10 -10